Regional Weather Roundup
Issued by NWS Tiyan, Guam

Home | Current Version | Previous Version | Text Only | Print | Product List | Glossary On
Versions: 1 2 3 4 5 6 7 8 9 10 11 12 13 14 15 16 17 18 19 20 21 22 23 24 25 26 27 28
000
ASGM40 PGUM 190012
RWRGUM
WEATHER ROUNDUP FOR THE MARIANAS
NATIONAL WEATHER SERVICE TIYAN GU
1000 AM GSST SAT APR 19 2014

GUZ001>004-190100-
MARIANA ISLANDS-

CITY           SKY/WX    TMP DP  RH WIND       PRES   REMARKS
GUAM AIRPORT   PTSUNNY   84  77  79 E16G22    29.82F HX  94
ANDERSEN AFB   PTSUNNY   84  79  84 E14       29.83F HX  96
ROTA AIRPORT   MOSUNNY   82  77  83 SE12      29.84F HX  91
TINIAN AP      LGT RAIN  82  77  83 E9        29.83S HX  91
SAIPAN AP      MOSUNNY   86  77  74 E13       29.83F HX  97

$$




USA.gov is the U.S. government's official web portal to all federal, state and local government web resources and services.